Time,TemperatureF,DewpointF,PressureIn,WindDirection,WindDirectionDegrees,WindSpeedMPH,WindSpeedGustMPH,Humidity,HourlyPrecipIn,Conditions,Clouds,dailyrainin,SoftwareType,DateUTC
2013-01-25 00:03:00,13.2,3.8,30.35,West,263,0.0,0.0,65,0.00,,,0.00,VWS V14.00,2013-01-25 05:03:00,
2013-01-25 00:04:00,13.1,3.6,30.35,West,263,0.0,0.0,65,0.00,,,0.00,VWS V14.00,2013-01-25 05:04:00,
2013-01-25 00:09:00,13.1,3.6,30.35,West,263,0.0,0.0,65,0.00,,,0.00,VWS V14.00,2013-01-25 05:09:00,
2013-01-25 00:14:00,12.9,3.6,30.35,West,263,0.0,0.0,66,0.00,,,0.00,VWS V14.00,2013-01-25 05:14:00,
2013-01-25 00:19:00,12.6,3.8,30.34,West,263,0.0,0.0,67,0.00,,,0.00,VWS V14.00,2013-01-25 05:19:00,
2013-01-25 00:24:00,12.8,3.8,30.34,West,263,0.0,0.0,67,0.00,,,0.00,VWS V14.00,2013-01-25 05:24:00,
2013-01-25 00:29:00,12.7,3.9,30.34,West,263,0.0,5.0,67,0.00,,,0.00,VWS V14.00,2013-01-25 05:29:00,
2013-01-25 00:34:00,12.7,4.0,30.34,West,263,0.0,0.0,67,0.00,,,0.00,VWS V14.00,2013-01-25 05:34:00,
2013-01-25 00:40:00,12.7,3.9,30.34,West,263,0.0,0.0,67,0.00,,,0.00,VWS V14.00,2013-01-25 05:40:00,
2013-01-25 00:45:00,12.6,3.9,30.34,West,263,0.0,0.0,68,0.00,,,0.00,VWS V14.00,2013-01-25 05:45:00,
2013-01-25 00:50:00,12.6,4.0,30.34,West,263,0.0,0.0,68,0.00,,,0.00,VWS V14.00,2013-01-25 05:50:00,
2013-01-25 00:55:00,12.6,4.0,30.34,West,263,0.0,0.0,68,0.00,,,0.00,VWS V14.00,2013-01-25 05:55:00,
2013-01-25 01:00:00,12.6,3.9,30.34,West,263,0.0,0.0,68,0.00,,,0.00,VWS V14.00,2013-01-25 06:00:00,
2013-01-25 01:05:00,12.5,3.8,30.34,West,263,0.0,0.0,68,0.00,,,0.00,VWS V14.00,2013-01-25 06:05:00,
2013-01-25 01:10:00,12.6,4.0,30.34,West,263,0.0,0.0,68,0.00,,,0.00,VWS V14.00,2013-01-25 06:10:00,
2013-01-25 01:15:00,12.4,3.9,30.34,West,263,0.0,0.0,68,0.00,,,0.00,VWS V14.00,2013-01-25 06:15:00,
2013-01-25 01:20:00,12.3,3.9,30.34,West,263,0.0,0.0,68,0.00,,,0.00,VWS V14.00,2013-01-25 06:20:00,
2013-01-25 01:25:00,12.2,4.0,30.34,West,263,0.0,0.0,69,0.00,,,0.00,VWS V14.00,2013-01-25 06:25:00,
2013-01-25 01:30:00,12.2,3.9,30.34,West,263,0.0,0.0,69,0.00,,,0.00,VWS V14.00,2013-01-25 06:30:00,
2013-01-25 01:35:00,12.2,3.9,30.34,West,263,0.0,0.0,69,0.00,,,0.00,VWS V14.00,2013-01-25 06:35:00,
2013-01-25 01:40:00,12.1,3.8,30.35,West,263,0.0,0.0,69,0.00,,,0.00,VWS V14.00,2013-01-25 06:40:00,
2013-01-25 01:45:00,12.2,3.9,30.35,West,263,0.0,0.0,69,0.00,,,0.00,VWS V14.00,2013-01-25 06:45:00,
2013-01-25 01:50:00,12.1,4.0,30.35,West,263,0.0,0.0,69,0.00,,,0.00,VWS V14.00,2013-01-25 06:50:00,
2013-01-25 01:56:00,12.0,4.0,30.36,West,263,0.0,0.0,70,0.00,,,0.00,VWS V14.00,2013-01-25 06:56:00,
2013-01-25 02:01:00,12.0,4.1,30.36,West,263,0.0,0.0,70,0.00,,,0.00,VWS V14.00,2013-01-25 07:01:00,
2013-01-25 02:06:00,12.0,4.1,30.36,West,263,0.0,0.0,70,0.00,,,0.00,VWS V14.00,2013-01-25 07:06:00,
2013-01-25 02:11:00,12.0,4.1,30.36,West,263,0.0,0.0,70,0.00,,,0.00,VWS V14.00,2013-01-25 07:11:00,
2013-01-25 02:16:00,12.0,4.1,30.36,West,263,0.0,0.0,70,0.00,,,0.00,VWS V14.00,2013-01-25 07:16:00,
2013-01-25 02:21:00,12.0,4.2,30.36,West,263,0.0,0.0,70,0.00,,,0.00,VWS V14.00,2013-01-25 07:21:00,
2013-01-25 02:26:00,11.9,4.2,30.35,West,263,0.0,0.0,71,0.00,,,0.00,VWS V14.00,2013-01-25 07:26:00,
2013-01-25 02:31:00,11.8,4.2,30.36,West,263,0.0,0.0,71,0.00,,,0.00,VWS V14.00,2013-01-25 07:31:00,
2013-01-25 02:36:00,11.6,4.2,30.36,West,263,0.0,0.0,72,0.00,,,0.00,VWS V14.00,2013-01-25 07:36:00,
2013-01-25 02:41:00,11.6,4.0,30.36,West,263,0.0,0.0,71,0.00,,,0.00,VWS V14.00,2013-01-25 07:41:00,
2013-01-25 02:46:00,11.5,4.0,30.36,West,263,0.0,0.0,71,0.00,,,0.00,VWS V14.00,2013-01-25 07:46:00,
2013-01-25 02:52:00,11.5,4.0,30.36,West,263,0.0,0.0,71,0.00,,,0.00,VWS V14.00,2013-01-25 07:52:00,
2013-01-25 02:57:00,11.5,4.2,30.36,West,263,0.0,0.0,72,0.00,,,0.00,VWS V14.00,2013-01-25 07:57:00,
2013-01-25 03:02:00,11.5,4.3,30.36,West,263,0.0,0.0,72,0.00,,,0.00,VWS V14.00,2013-01-25 08:02:00,
2013-01-25 03:07:00,11.5,4.2,30.36,West,263,0.0,0.0,72,0.00,,,0.00,VWS V14.00,2013-01-25 08:07:00,
2013-01-25 03:12:00,11.6,4.3,30.35,West,263,0.0,0.0,72,0.00,,,0.00,VWS V14.00,2013-01-25 08:12:00,
2013-01-25 03:17:00,11.6,4.4,30.36,West,263,0.0,0.0,72,0.00,,,0.00,VWS V14.00,2013-01-25 08:17:00,
2013-01-25 03:22:00,11.5,4.3,30.35,West,263,0.0,0.0,72,0.00,,,0.00,VWS V14.00,2013-01-25 08:22:00,
2013-01-25 03:27:00,11.5,4.4,30.35,West,263,0.0,0.0,73,0.00,,,0.00,VWS V14.00,2013-01-25 08:27:00,
2013-01-25 03:32:00,11.4,4.3,30.34,West,263,0.0,0.0,73,0.00,,,0.00,VWS V14.00,2013-01-25 08:32:00,
2013-01-25 03:37:00,11.4,4.3,30.34,West,263,0.0,0.0,73,0.00,,,0.00,VWS V14.00,2013-01-25 08:37:00,
2013-01-25 03:42:00,11.4,4.4,30.35,West,263,0.0,0.0,73,0.00,,,0.00,VWS V14.00,2013-01-25 08:42:00,
2013-01-25 03:47:00,11.3,4.5,30.36,West,263,0.0,0.0,74,0.00,,,0.00,VWS V14.00,2013-01-25 08:47:00,
2013-01-25 03:52:00,11.3,4.5,30.36,West,263,0.0,0.0,74,0.00,,,0.00,VWS V14.00,2013-01-25 08:52:00,
2013-01-25 03:57:00,11.1,4.4,30.36,West,263,0.0,0.0,74,0.00,,,0.00,VWS V14.00,2013-01-25 08:57:00,
2013-01-25 04:03:00,10.8,4.2,30.36,West,263,0.0,0.0,74,0.00,,,0.00,VWS V14.00,2013-01-25 09:03:00,
2013-01-25 04:08:00,10.7,4.2,30.35,West,263,0.0,0.0,75,0.00,,,0.00,VWS V14.00,2013-01-25 09:08:00,
2013-01-25 04:13:00,10.6,4.1,30.36,West,263,0.0,0.0,74,0.00,,,0.00,VWS V14.00,2013-01-25 09:13:00,
2013-01-25 04:18:00,10.4,4.2,30.36,West,263,0.0,0.0,75,0.00,,,0.00,VWS V14.00,2013-01-25 09:18:00,
2013-01-25 04:23:00,10.4,4.2,30.36,West,263,0.0,0.0,76,0.00,,,0.00,VWS V14.00,2013-01-25 09:23:00,
2013-01-25 04:28:00,10.3,4.2,30.36,West,263,0.0,0.0,76,0.00,,,0.00,VWS V14.00,2013-01-25 09:28:00,
2013-01-25 04:33:00,10.2,4.2,30.36,West,263,0.0,0.0,76,0.00,,,0.00,VWS V14.00,2013-01-25 09:33:00,
2013-01-25 04:38:00,10.0,4.3,30.36,West,263,0.0,0.0,77,0.00,,,0.00,VWS V14.00,2013-01-25 09:38:00,
2013-01-25 04:43:00,9.8,4.2,30.37,West,263,0.0,0.0,78,0.00,,,0.00,VWS V14.00,2013-01-25 09:43:00,
2013-01-25 04:48:00,9.6,4.2,30.36,West,263,0.0,0.0,78,0.00,,,0.00,VWS V14.00,2013-01-25 09:48:00,
2013-01-25 04:54:00,9.3,4.1,30.37,West,263,0.0,0.0,79,0.00,,,0.00,VWS V14.00,2013-01-25 09:54:00,
2013-01-25 04:59:00,9.0,4.0,30.37,West,263,0.0,0.0,80,0.00,,,0.00,VWS V14.00,2013-01-25 09:59:00,
2013-01-25 05:04:00,8.8,3.8,30.37,West,263,0.0,0.0,80,0.00,,,0.00,VWS V14.00,2013-01-25 10:04:00,
2013-01-25 05:09:00,8.5,3.7,30.36,West,263,0.0,0.0,80,0.00,,,0.00,VWS V14.00,2013-01-25 10:09:00,
2013-01-25 05:14:00,8.4,3.7,30.36,West,263,0.0,0.0,81,0.00,,,0.00,VWS V14.00,2013-01-25 10:14:00,
2013-01-25 05:19:00,8.1,3.4,30.36,West,263,0.0,0.0,81,0.00,,,0.00,VWS V14.00,2013-01-25 10:19:00,
2013-01-25 05:24:00,7.9,3.2,30.37,West,263,0.0,0.0,81,0.00,,,0.00,VWS V14.00,2013-01-25 10:24:00,
2013-01-25 05:29:00,7.6,3.4,30.37,West,263,0.0,0.0,82,0.00,,,0.00,VWS V14.00,2013-01-25 10:29:00,
2013-01-25 05:34:00,7.5,3.4,30.37,West,263,0.0,0.0,83,0.00,,,0.00,VWS V14.00,2013-01-25 10:34:00,
2013-01-25 05:39:00,7.3,3.1,30.37,West,263,0.0,0.0,82,0.00,,,0.00,VWS V14.00,2013-01-25 10:39:00,
2013-01-25 05:44:00,7.2,3.4,30.37,West,263,0.0,0.0,84,0.00,,,0.00,VWS V14.00,2013-01-25 10:44:00,
2013-01-25 05:49:00,7.0,3.7,30.37,West,263,0.0,0.0,86,0.00,,,0.00,VWS V14.00,2013-01-25 10:49:00,
2013-01-25 05:55:00,6.9,3.3,30.37,West,263,0.0,0.0,85,0.00,,,0.00,VWS V14.00,2013-01-25 10:55:00,
2013-01-25 06:00:00,6.8,3.1,30.37,West,263,0.0,0.0,84,0.00,,,0.00,VWS V14.00,2013-01-25 11:00:00,
2013-01-25 06:05:00,6.7,3.1,30.37,West,263,0.0,0.0,85,0.00,,,0.00,VWS V14.00,2013-01-25 11:05:00,
2013-01-25 06:10:00,6.7,3.3,30.36,West,263,0.0,0.0,86,0.00,,,0.00,VWS V14.00,2013-01-25 11:10:00,
2013-01-25 06:15:00,6.6,3.2,30.37,West,263,0.0,0.0,85,0.00,,,0.00,VWS V14.00,2013-01-25 11:15:00,
2013-01-25 06:20:00,6.6,3.2,30.36,West,263,0.0,0.0,86,0.00,,,0.00,VWS V14.00,2013-01-25 11:20:00,
2013-01-25 06:25:00,6.5,3.2,30.37,West,263,0.0,0.0,86,0.00,,,0.00,VWS V14.00,2013-01-25 11:25:00,
2013-01-25 06:30:00,6.5,3.3,30.38,West,263,0.0,0.0,86,0.00,,,0.00,VWS V14.00,2013-01-25 11:30:00,
2013-01-25 06:35:00,6.5,3.6,30.38,West,263,0.0,0.0,88,0.00,,,0.00,VWS V14.00,2013-01-25 11:35:00,
2013-01-25 06:40:00,6.5,3.5,30.38,West,263,0.0,0.0,87,0.00,,,0.00,VWS V14.00,2013-01-25 11:40:00,
2013-01-25 06:45:00,6.4,3.4,30.38,West,263,0.0,0.0,87,0.00,,,0.00,VWS V14.00,2013-01-25 11:45:00,
2013-01-25 06:50:00,6.4,3.4,30.38,West,263,0.0,0.0,87,0.00,,,0.00,VWS V14.00,2013-01-25 11:50:00,
2013-01-25 06:55:00,6.4,3.4,30.39,West,263,0.0,0.0,87,0.00,,,0.00,VWS V14.00,2013-01-25 11:55:00,
2013-01-25 07:00:00,6.4,3.5,30.39,West,263,0.0,0.0,87,0.00,,,0.00,VWS V14.00,2013-01-25 12:00:00,
2013-01-25 07:06:00,6.5,3.6,30.39,West,263,0.0,0.0,88,0.00,,,0.00,VWS V14.00,2013-01-25 12:06:00,
2013-01-25 07:11:00,6.7,4.1,30.38,West,263,0.0,0.0,89,0.00,,,0.00,VWS V14.00,2013-01-25 12:11:00,
2013-01-25 07:16:00,6.9,4.5,30.38,West,263,0.0,0.0,90,0.00,,,0.00,VWS V14.00,2013-01-25 12:16:00,
2013-01-25 07:21:00,7.1,4.6,30.38,West,263,0.0,0.0,89,0.00,,,0.00,VWS V14.00,2013-01-25 12:21:00,
2013-01-25 07:26:00,7.2,4.6,30.38,West,263,0.0,0.0,89,0.00,,,0.00,VWS V14.00,2013-01-25 12:26:00,
2013-01-25 07:31:00,7.4,4.9,30.38,West,263,0.0,0.0,89,0.00,,,0.00,VWS V14.00,2013-01-25 12:31:00,
2013-01-25 07:36:00,7.6,5.0,30.38,West,263,0.0,0.0,89,0.00,,,0.00,VWS V14.00,2013-01-25 12:36:00,
2013-01-25 07:41:00,7.7,5.0,30.37,West,263,0.0,0.0,88,0.00,,,0.00,VWS V14.00,2013-01-25 12:41:00,
2013-01-25 07:47:00,8.0,5.4,30.37,West,263,0.0,0.0,89,0.00,,,0.00,VWS V14.00,2013-01-25 12:47:00,
2013-01-25 07:52:00,8.5,5.8,30.37,West,263,0.0,0.0,88,0.00,,,0.00,VWS V14.00,2013-01-25 12:52:00,
2013-01-25 07:57:00,8.8,5.9,30.38,West,263,0.0,0.0,88,0.00,,,0.00,VWS V14.00,2013-01-25 12:57:00,
2013-01-25 08:02:00,9.3,6.2,30.38,West,263,0.0,0.0,87,0.00,,,0.00,VWS V14.00,2013-01-25 13:02:00,
2013-01-25 08:07:00,9.8,6.3,30.38,West,263,0.0,0.0,85,0.00,,,0.00,VWS V14.00,2013-01-25 13:07:00,
2013-01-25 08:12:00,10.4,6.6,30.38,West,263,0.0,0.0,84,0.00,,,0.00,VWS V14.00,2013-01-25 13:12:00,
2013-01-25 08:17:00,10.8,6.7,30.38,West,263,0.0,0.0,83,0.00,,,0.00,VWS V14.00,2013-01-25 13:17:00,
2013-01-25 08:22:00,11.1,7.3,30.38,West,263,0.0,0.0,84,0.00,,,0.00,VWS V14.00,2013-01-25 13:22:00,
2013-01-25 08:27:00,11.3,7.1,30.37,West,263,0.0,0.0,83,0.00,,,0.00,VWS V14.00,2013-01-25 13:27:00,
2013-01-25 08:33:00,11.7,6.9,30.37,West,263,0.0,0.0,80,0.00,,,0.00,VWS V14.00,2013-01-25 13:33:00,
2013-01-25 08:38:00,12.0,7.1,30.37,West,263,0.0,0.0,80,0.00,,,0.00,VWS V14.00,2013-01-25 13:38:00,
2013-01-25 08:43:00,12.2,6.7,30.37,West,263,0.0,0.0,78,0.00,,,0.00,VWS V14.00,2013-01-25 13:43:00,
2013-01-25 08:48:00,12.4,6.5,30.37,West,263,0.0,1.6,77,0.00,,,0.00,VWS V14.00,2013-01-25 13:48:00,
2013-01-25 08:53:00,12.6,6.4,30.37,West,263,0.0,0.0,76,0.00,,,0.00,VWS V14.00,2013-01-25 13:53:00,
2013-01-25 08:58:00,12.8,6.8,30.37,West,263,0.0,0.0,76,0.00,,,0.00,VWS V14.00,2013-01-25 13:58:00,
2013-01-25 09:03:00,13.1,6.5,30.37,West,263,0.0,0.0,74,0.00,,,0.00,VWS V14.00,2013-01-25 14:03:00,
2013-01-25 09:08:00,13.3,7.0,30.37,West,263,0.0,0.0,75,0.00,,,0.00,VWS V14.00,2013-01-25 14:08:00,
2013-01-25 09:13:00,13.4,6.7,30.38,West,263,0.0,0.0,74,0.00,,,0.00,VWS V14.00,2013-01-25 14:13:00,
2013-01-25 09:18:00,13.5,6.8,30.37,West,263,0.0,0.0,74,0.00,,,0.00,VWS V14.00,2013-01-25 14:18:00,
2013-01-25 09:23:00,13.7,6.6,30.37,ENE,63,0.0,8.5,73,0.00,,,0.00,VWS V14.00,2013-01-25 14:23:00,
2013-01-25 09:28:00,13.8,7.0,30.37,ENE,63,0.0,8.5,74,0.00,,,0.00,VWS V14.00,2013-01-25 14:28:00,
2013-01-25 09:33:00,14.1,7.2,30.37,ENE,63,0.0,0.0,73,0.00,,,0.00,VWS V14.00,2013-01-25 14:33:00,
2013-01-25 09:38:00,14.4,7.0,30.38,ENE,63,0.0,0.0,72,0.00,,,0.00,VWS V14.00,2013-01-25 14:38:00,
2013-01-25 09:44:00,14.7,7.4,30.38,ENE,63,0.0,0.0,72,0.00,,,0.00,VWS V14.00,2013-01-25 14:44:00,
2013-01-25 09:49:00,14.9,7.6,30.38,ENE,63,0.0,0.0,72,0.00,,,0.00,VWS V14.00,2013-01-25 14:49:00,
2013-01-25 09:54:00,15.0,7.1,30.38,ENE,63,0.0,0.0,70,0.00,,,0.00,VWS V14.00,2013-01-25 14:54:00,
2013-01-25 09:59:00,15.1,6.9,30.39,ENE,63,0.0,0.0,70,0.00,,,0.00,VWS V14.00,2013-01-25 14:59:00,
2013-01-25 10:04:00,15.2,7.1,30.39,SW,233,0.0,7.6,70,0.00,,,0.00,VWS V14.00,2013-01-25 15:04:00,
2013-01-25 10:09:00,15.3,7.3,30.38,SW,233,0.0,7.6,70,0.00,,,0.00,VWS V14.00,2013-01-25 15:09:00,
2013-01-25 10:14:00,15.6,7.7,30.38,SW,233,0.0,0.0,70,0.00,,,0.00,VWS V14.00,2013-01-25 15:14:00,
2013-01-25 10:19:00,15.8,7.8,30.38,SW,233,0.0,0.0,70,0.00,,,0.00,VWS V14.00,2013-01-25 15:19:00,
2013-01-25 10:24:00,15.9,8.0,30.39,SW,233,0.0,0.0,70,0.00,,,0.00,VWS V14.00,2013-01-25 15:24:00,
2013-01-25 10:29:00,16.1,8.0,30.39,SW,233,0.0,0.0,70,0.00,,,0.00,VWS V14.00,2013-01-25 15:29:00,
2013-01-25 10:34:00,16.2,7.6,30.38,SW,233,0.0,0.0,68,0.00,,,0.00,VWS V14.00,2013-01-25 15:34:00,
2013-01-25 10:39:00,16.5,8.2,30.38,SW,233,0.0,0.0,69,0.00,,,0.00,VWS V14.00,2013-01-25 15:39:00,
2013-01-25 10:44:00,16.7,8.1,30.38,SW,233,0.0,0.0,68,0.00,,,0.00,VWS V14.00,2013-01-25 15:44:00,
2013-01-25 10:49:00,16.9,7.9,30.38,SW,233,0.0,0.0,67,0.00,,,0.00,VWS V14.00,2013-01-25 15:49:00,
2013-01-25 10:54:00,17.0,7.8,30.36,SW,233,0.0,0.0,66,0.00,,,0.00,VWS V14.00,2013-01-25 15:54:00,
2013-01-25 10:59:00,17.3,8.0,30.36,SW,233,0.0,0.0,66,0.00,,,0.00,VWS V14.00,2013-01-25 15:59:00,
2013-01-25 11:04:00,17.7,8.3,30.36,SW,233,0.0,0.0,66,0.00,,,0.00,VWS V14.00,2013-01-25 16:04:00,
2013-01-25 11:09:00,17.9,7.6,30.36,SW,233,0.0,0.0,64,0.00,,,0.00,VWS V14.00,2013-01-25 16:09:00,
2013-01-25 11:15:00,18.4,7.5,30.35,SW,233,0.0,0.0,62,0.00,,,0.00,VWS V14.00,2013-01-25 16:15:00,
2013-01-25 11:20:00,18.6,6.7,30.35,SW,233,0.0,0.0,59,0.00,,,0.00,VWS V14.00,2013-01-25 16:20:00,
2013-01-25 11:25:00,18.8,7.2,30.35,SW,233,0.0,0.0,60,0.00,,,0.00,VWS V14.00,2013-01-25 16:25:00,
2013-01-25 11:30:00,18.9,6.9,30.34,SW,233,0.0,0.0,59,0.00,,,0.00,VWS V14.00,2013-01-25 16:30:00,
2013-01-25 11:35:00,19.1,7.6,30.33,SW,233,0.0,0.0,60,0.00,,,0.00,VWS V14.00,2013-01-25 16:35:00,
2013-01-25 11:40:00,19.4,7.4,30.33,SW,233,0.0,0.0,59,0.00,,,0.00,VWS V14.00,2013-01-25 16:40:00,
2013-01-25 11:45:00,19.7,7.6,30.33,SW,233,0.0,0.0,59,0.00,,,0.00,VWS V14.00,2013-01-25 16:45:00,
2013-01-25 11:50:00,20.3,7.9,30.32,SW,233,0.0,0.0,58,0.00,,,0.00,VWS V14.00,2013-01-25 16:50:00,
2013-01-25 11:55:00,20.5,7.0,30.31,SW,233,0.0,0.0,55,0.00,,,0.00,VWS V14.00,2013-01-25 16:55:00,
2013-01-25 12:00:00,20.4,6.2,30.31,SW,233,0.0,0.0,54,0.00,,,0.00,VWS V14.00,2013-01-25 17:00:00,
2013-01-25 12:05:00,20.5,6.1,30.31,SW,233,0.0,0.0,53,0.00,,,0.00,VWS V14.00,2013-01-25 17:05:00,
2013-01-25 12:10:00,20.9,6.3,30.31,SW,233,0.0,0.0,52,0.00,,,0.00,VWS V14.00,2013-01-25 17:10:00,
2013-01-25 12:15:00,21.0,5.8,30.30,SW,233,0.0,0.0,51,0.00,,,0.00,VWS V14.00,2013-01-25 17:15:00,
2013-01-25 12:20:00,21.1,6.3,30.30,SW,233,0.0,0.0,52,0.00,,,0.00,VWS V14.00,2013-01-25 17:20:00,
2013-01-25 12:26:00,21.0,6.4,30.29,SW,233,0.0,0.0,52,0.00,,,0.00,VWS V14.00,2013-01-25 17:26:00,
2013-01-25 12:31:00,20.8,5.7,30.29,SW,233,0.0,0.0,51,0.00,,,0.00,VWS V14.00,2013-01-25 17:31:00,
2013-01-25 12:36:00,21.0,6.6,30.28,SW,233,0.0,0.0,53,0.00,,,0.00,VWS V14.00,2013-01-25 17:36:00,
2013-01-25 12:41:00,21.1,5.3,30.28,SW,233,0.0,0.0,50,0.00,,,0.00,VWS V14.00,2013-01-25 17:41:00,
2013-01-25 12:46:00,21.2,6.6,30.28,SW,233,0.0,0.0,53,0.00,,,0.00,VWS V14.00,2013-01-25 17:46:00,
2013-01-25 12:51:00,21.4,6.6,30.28,SW,233,0.0,0.0,52,0.00,,,0.00,VWS V14.00,2013-01-25 17:51:00,
2013-01-25 12:56:00,21.5,6.2,30.28,SW,233,0.0,0.0,51,0.00,,,0.00,VWS V14.00,2013-01-25 17:56:00,
2013-01-25 13:01:00,21.7,5.8,30.27,SW,233,0.0,0.0,50,0.00,,,0.00,VWS V14.00,2013-01-25 18:01:00,
2013-01-25 13:06:00,21.9,5.3,30.27,SW,233,0.0,0.0,48,0.00,,,0.00,VWS V14.00,2013-01-25 18:06:00,
2013-01-25 13:11:00,21.8,5.6,30.26,SW,233,0.0,0.0,49,0.00,,,0.00,VWS V14.00,2013-01-25 18:11:00,
2013-01-25 13:16:00,21.9,5.8,30.26,SW,233,0.0,0.0,49,0.00,,,0.00,VWS V14.00,2013-01-25 18:16:00,
2013-01-25 13:21:00,21.8,5.5,30.26,SW,233,0.0,0.0,49,0.00,,,0.00,VWS V14.00,2013-01-25 18:21:00,
2013-01-25 13:26:00,22.1,6.3,30.26,SW,233,0.0,0.0,50,0.00,,,0.00,VWS V14.00,2013-01-25 18:26:00,
2013-01-25 13:31:00,22.5,6.3,30.26,SW,233,0.0,0.0,49,0.00,,,0.00,VWS V14.00,2013-01-25 18:31:00,
2013-01-25 13:36:00,22.8,5.3,30.25,SW,233,0.0,0.0,46,0.00,,,0.00,VWS V14.00,2013-01-25 18:36:00,
2013-01-25 13:41:00,22.9,6.6,30.25,SW,233,0.0,0.0,49,0.00,,,0.00,VWS V14.00,2013-01-25 18:41:00,
2013-01-25 13:46:00,22.9,6.9,30.24,SW,233,0.0,0.0,50,0.00,,,0.00,VWS V14.00,2013-01-25 18:46:00,
2013-01-25 13:51:00,22.6,5.9,30.24,SW,233,0.0,0.0,48,0.00,,,0.00,VWS V14.00,2013-01-25 18:51:00,
2013-01-25 13:56:00,22.7,6.6,30.24,SW,233,0.0,0.0,49,0.00,,,0.00,VWS V14.00,2013-01-25 18:56:00,
2013-01-25 14:02:00,22.9,6.2,30.23,SW,233,0.0,0.0,48,0.00,,,0.00,VWS V14.00,2013-01-25 19:02:00,
2013-01-25 14:07:00,23.0,6.8,30.23,SW,233,0.0,0.0,49,0.00,,,0.00,VWS V14.00,2013-01-25 19:07:00,
2013-01-25 14:12:00,22.9,7.0,30.23,SW,233,0.0,0.0,50,0.00,,,0.00,VWS V14.00,2013-01-25 19:12:00,
2013-01-25 14:17:00,22.9,6.7,30.23,SW,233,0.0,0.0,49,0.00,,,0.00,VWS V14.00,2013-01-25 19:17:00,
2013-01-25 14:22:00,23.1,6.9,30.23,SW,233,0.0,0.0,49,0.00,,,0.00,VWS V14.00,2013-01-25 19:22:00,
2013-01-25 14:27:00,23.2,6.7,30.23,SW,233,0.0,0.0,48,0.00,,,0.00,VWS V14.00,2013-01-25 19:27:00,
2013-01-25 14:32:00,23.2,6.8,30.23,SW,233,0.0,0.0,49,0.00,,,0.00,VWS V14.00,2013-01-25 19:32:00,
2013-01-25 14:37:00,23.3,7.0,30.22,SW,233,0.0,0.0,49,0.00,,,0.00,VWS V14.00,2013-01-25 19:37:00,
2013-01-25 14:42:00,23.3,6.9,30.22,SW,233,0.0,0.0,49,0.00,,,0.00,VWS V14.00,2013-01-25 19:42:00,
2013-01-25 14:47:00,23.4,7.1,30.22,SW,233,0.0,0.0,49,0.00,,,0.00,VWS V14.00,2013-01-25 19:47:00,
2013-01-25 14:52:00,23.5,6.3,30.22,SW,233,0.0,0.0,47,0.00,,,0.00,VWS V14.00,2013-01-25 19:52:00,
2013-01-25 14:57:00,23.6,7.0,30.21,SW,233,0.0,0.0,48,0.00,,,0.00,VWS V14.00,2013-01-25 19:57:00,
2013-01-25 15:02:00,23.6,6.9,30.21,SW,233,0.0,0.0,48,0.00,,,0.00,VWS V14.00,2013-01-25 20:02:00,
2013-01-25 15:07:00,23.7,7.9,30.21,SW,233,0.0,0.0,50,0.00,,,0.00,VWS V14.00,2013-01-25 20:07:00,
2013-01-25 15:12:00,23.8,7.8,30.20,SW,233,0.0,0.0,50,0.00,,,0.00,VWS V14.00,2013-01-25 20:12:00,
2013-01-25 15:17:00,23.8,7.5,30.20,SW,233,0.0,0.0,49,0.00,,,0.00,VWS V14.00,2013-01-25 20:17:00,
2013-01-25 15:22:00,23.8,7.3,30.20,SW,233,0.0,0.0,49,0.00,,,0.00,VWS V14.00,2013-01-25 20:22:00,
2013-01-25 15:28:00,23.9,7.0,30.20,SW,233,0.0,0.0,48,0.00,,,0.00,VWS V14.00,2013-01-25 20:28:00,
2013-01-25 15:33:00,23.8,7.2,30.20,SW,233,0.0,0.0,48,0.00,,,0.00,VWS V14.00,2013-01-25 20:33:00,
2013-01-25 15:38:00,23.8,7.3,30.20,SW,233,0.0,0.0,49,0.00,,,0.00,VWS V14.00,2013-01-25 20:38:00,
2013-01-25 15:43:00,23.8,7.7,30.20,SW,233,0.0,0.0,50,0.00,,,0.00,VWS V14.00,2013-01-25 20:43:00,
2013-01-25 15:48:00,23.8,8.1,30.20,SW,233,0.0,0.0,50,0.00,,,0.00,VWS V14.00,2013-01-25 20:48:00,
2013-01-25 15:53:00,23.8,7.8,30.20,SW,233,0.0,0.0,50,0.00,,,0.00,VWS V14.00,2013-01-25 20:53:00,
2013-01-25 15:58:00,23.8,7.8,30.19,SW,233,0.0,0.0,50,0.00,,,0.00,VWS V14.00,2013-01-25 20:58:00,
2013-01-25 16:03:00,23.7,8.6,30.20,SW,233,0.0,0.0,52,0.00,,,0.00,VWS V14.00,2013-01-25 21:03:00,
2013-01-25 16:08:00,23.7,9.6,30.20,SW,233,0.0,0.0,54,0.00,,,0.00,VWS V14.00,2013-01-25 21:08:00,
2013-01-25 16:14:00,23.6,11.1,30.20,SW,233,0.0,0.0,58,0.00,,,0.00,VWS V14.00,2013-01-25 21:14:00,
2013-01-25 16:19:00,23.6,10.9,30.20,SW,233,0.0,0.0,58,0.00,,,0.00,VWS V14.00,2013-01-25 21:19:00,
2013-01-25 16:24:00,23.4,11.1,30.20,SW,233,0.0,0.0,59,0.00,,,0.00,VWS V14.00,2013-01-25 21:24:00,
2013-01-25 16:29:00,23.2,10.9,30.20,SW,233,0.0,0.0,59,0.00,,,0.00,VWS V14.00,2013-01-25 21:29:00,
2013-01-25 16:34:00,23.0,10.5,30.20,SW,233,0.0,0.0,58,0.00,,,0.00,VWS V14.00,2013-01-25 21:34:00,
2013-01-25 16:39:00,22.8,10.2,30.19,SW,233,0.0,0.0,58,0.00,,,0.00,VWS V14.00,2013-01-25 21:39:00,
2013-01-25 16:44:00,22.7,9.5,30.18,SW,233,0.0,0.0,56,0.00,,,0.00,VWS V14.00,2013-01-25 21:44:00,
2013-01-25 16:49:00,22.6,9.2,30.18,SW,233,0.0,0.0,56,0.00,,,0.00,VWS V14.00,2013-01-25 21:49:00,
2013-01-25 16:54:00,22.5,9.2,30.18,SW,233,0.0,0.0,56,0.00,,,0.00,VWS V14.00,2013-01-25 21:54:00,
2013-01-25 16:59:00,22.4,8.9,30.17,SW,233,0.0,0.0,56,0.00,,,0.00,VWS V14.00,2013-01-25 21:59:00,
2013-01-25 17:05:00,22.3,9.2,30.17,SW,233,0.0,0.0,56,0.00,,,0.00,VWS V14.00,2013-01-25 22:05:00,
2013-01-25 17:10:00,22.2,8.6,30.17,SW,233,0.0,0.0,55,0.00,,,0.00,VWS V14.00,2013-01-25 22:10:00,
2013-01-25 17:15:00,22.1,8.7,30.17,SW,233,0.0,0.0,56,0.00,,,0.00,VWS V14.00,2013-01-25 22:15:00,
2013-01-25 17:20:00,22.0,8.2,30.16,SW,233,0.0,0.0,55,0.00,,,0.00,VWS V14.00,2013-01-25 22:20:00,
2013-01-25 17:25:00,21.9,8.0,30.17,SW,233,0.0,0.0,54,0.00,,,0.00,VWS V14.00,2013-01-25 22:25:00,
2013-01-25 17:30:00,21.8,8.4,30.17,SW,233,0.0,0.0,56,0.00,,,0.00,VWS V14.00,2013-01-25 22:30:00,
2013-01-25 17:35:00,21.8,8.8,30.16,SW,233,0.0,0.0,57,0.00,,,0.00,VWS V14.00,2013-01-25 22:35:00,
2013-01-25 17:40:00,21.7,8.8,30.16,SW,233,0.0,0.0,57,0.00,,,0.00,VWS V14.00,2013-01-25 22:40:00,
2013-01-25 17:45:00,21.6,9.0,30.16,SW,233,0.0,0.0,58,0.00,,,0.00,VWS V14.00,2013-01-25 22:45:00,
2013-01-25 17:50:00,21.6,9.2,30.16,SW,233,0.0,0.0,58,0.00,,,0.00,VWS V14.00,2013-01-25 22:50:00,
2013-01-25 17:55:00,21.6,9.5,30.16,SW,233,0.0,0.0,59,0.00,,,0.00,VWS V14.00,2013-01-25 22:55:00,
2013-01-25 18:00:00,21.5,9.4,30.15,SW,233,0.0,0.0,59,0.00,,,0.00,VWS V14.00,2013-01-25 23:00:00,
2013-01-25 18:06:00,21.5,9.8,30.15,SW,233,0.0,0.0,60,0.00,,,0.00,VWS V14.00,2013-01-25 23:06:00,
2013-01-25 18:11:00,21.4,10.9,30.15,SW,233,0.0,0.0,63,0.00,,,0.00,VWS V14.00,2013-01-25 23:11:00,
2013-01-25 18:16:00,21.5,11.9,30.15,SW,233,0.0,0.0,66,0.00,,,0.00,VWS V14.00,2013-01-25 23:16:00,
2013-01-25 18:21:00,21.4,13.0,30.14,SW,233,0.0,0.0,70,0.00,,,0.00,VWS V14.00,2013-01-25 23:21:00,
2013-01-25 18:26:00,21.0,13.8,30.14,SW,233,0.0,0.0,73,0.00,,,0.00,VWS V14.00,2013-01-25 23:26:00,
2013-01-25 18:31:00,20.6,15.3,30.14,SW,233,0.0,0.0,80,0.00,,,0.00,VWS V14.00,2013-01-25 23:31:00,
2013-01-25 18:36:00,20.4,15.1,30.14,SW,233,0.0,0.0,80,0.00,,,0.00,VWS V14.00,2013-01-25 23:36:00,
2013-01-25 18:41:00,20.2,15.0,30.13,SW,233,0.0,0.0,80,0.00,,,0.00,VWS V14.00,2013-01-25 23:41:00,
2013-01-25 18:47:00,20.1,15.2,30.13,SW,233,0.0,0.0,81,0.00,,,0.00,VWS V14.00,2013-01-25 23:47:00,
2013-01-25 18:52:00,20.0,15.3,30.13,SW,233,0.0,0.0,82,0.00,,,0.00,VWS V14.00,2013-01-25 23:52:00,
2013-01-25 18:57:00,19.9,15.4,30.13,SW,233,0.0,0.0,82,0.00,,,0.00,VWS V14.00,2013-01-25 23:57:00,
2013-01-25 19:02:00,19.8,15.5,30.13,SW,233,0.0,0.0,83,0.00,,,0.00,VWS V14.00,2013-01-26 00:02:00,
2013-01-25 19:07:00,19.8,15.6,30.13,SW,233,0.0,0.0,83,0.00,,,0.00,VWS V14.00,2013-01-26 00:07:00,
2013-01-25 19:12:00,19.7,15.5,30.13,SW,233,0.0,0.0,83,0.00,,,0.00,VWS V14.00,2013-01-26 00:12:00,
2013-01-25 19:17:00,19.7,15.8,30.12,SW,233,0.0,0.0,84,0.00,,,0.00,VWS V14.00,2013-01-26 00:17:00,
2013-01-25 19:22:00,19.6,15.9,30.12,SW,233,0.0,0.0,85,0.00,,,0.00,VWS V14.00,2013-01-26 00:22:00,
2013-01-25 19:27:00,19.6,15.9,30.12,SW,233,0.0,0.0,85,0.00,,,0.00,VWS V14.00,2013-01-26 00:27:00,
2013-01-25 19:33:00,19.5,15.9,30.12,SW,233,0.0,0.0,86,0.00,,,0.00,VWS V14.00,2013-01-26 00:33:00,
2013-01-25 19:38:00,19.5,16.2,30.12,SW,233,0.0,0.0,87,0.00,,,0.00,VWS V14.00,2013-01-26 00:38:00,
2013-01-25 19:43:00,19.4,16.2,30.11,SW,233,0.0,0.0,87,0.00,,,0.00,VWS V14.00,2013-01-26 00:43:00,
2013-01-25 19:48:00,19.4,16.3,30.11,SW,233,0.0,0.0,88,0.00,,,0.00,VWS V14.00,2013-01-26 00:48:00,
2013-01-25 19:53:00,19.4,16.4,30.11,SW,233,0.0,0.0,88,0.00,,,0.00,VWS V14.00,2013-01-26 00:53:00,
2013-01-25 19:58:00,19.4,16.5,30.11,SW,233,0.0,0.0,88,0.00,,,0.00,VWS V14.00,2013-01-26 00:58:00,
2013-01-25 20:03:00,19.4,16.6,30.11,SW,233,0.0,0.0,89,0.00,,,0.00,VWS V14.00,2013-01-26 01:03:00,
2013-01-25 20:08:00,19.4,16.7,30.10,SW,233,0.0,0.0,89,0.00,,,0.00,VWS V14.00,2013-01-26 01:08:00,
2013-01-25 20:13:00,19.4,16.8,30.10,SW,233,0.0,0.0,89,0.00,,,0.00,VWS V14.00,2013-01-26 01:13:00,
2013-01-25 20:18:00,19.4,16.9,30.10,SW,233,0.0,0.0,90,0.00,,,0.00,VWS V14.00,2013-01-26 01:18:00,
2013-01-25 20:23:00,19.4,17.0,30.10,SW,233,0.0,0.0,90,0.00,,,0.00,VWS V14.00,2013-01-26 01:23:00,
2013-01-25 20:28:00,19.4,17.0,30.09,SW,233,0.0,0.0,90,0.00,,,0.00,VWS V14.00,2013-01-26 01:28:00,
2013-01-25 20:33:00,19.4,17.0,30.09,SW,233,0.0,0.0,90,0.00,,,0.00,VWS V14.00,2013-01-26 01:33:00,
2013-01-25 20:39:00,19.4,17.1,30.09,SW,233,0.0,0.0,90,0.00,,,0.00,VWS V14.00,2013-01-26 01:39:00,
2013-01-25 20:44:00,19.3,17.0,30.09,SW,233,0.0,0.0,90,0.00,,,0.00,VWS V14.00,2013-01-26 01:44:00,
2013-01-25 20:49:00,19.3,17.0,30.09,SW,233,0.0,0.0,90,0.00,,,0.00,VWS V14.00,2013-01-26 01:49:00,
2013-01-25 20:54:00,19.3,17.0,30.09,SW,233,0.0,0.0,90,0.00,,,0.00,VWS V14.00,2013-01-26 01:54:00,
2013-01-25 20:59:00,19.3,17.1,30.09,SW,233,0.0,0.0,91,0.00,,,0.00,VWS V14.00,2013-01-26 01:59:00,
2013-01-25 21:04:00,19.3,17.1,30.08,SW,233,0.0,0.0,91,0.00,,,0.00,VWS V14.00,2013-01-26 02:04:00,
2013-01-25 21:09:00,19.3,17.1,30.08,SW,233,0.0,0.0,91,0.00,,,0.00,VWS V14.00,2013-01-26 02:09:00,
2013-01-25 21:14:00,19.3,17.1,30.08,SW,233,0.0,0.0,91,0.00,,,0.00,VWS V14.00,2013-01-26 02:14:00,
2013-01-25 21:19:00,19.3,17.1,30.08,SW,233,0.0,0.0,91,0.00,,,0.00,VWS V14.00,2013-01-26 02:19:00,
2013-01-25 21:24:00,19.3,17.2,30.08,SW,233,0.0,0.0,91,0.00,,,0.00,VWS V14.00,2013-01-26 02:24:00,
2013-01-25 21:30:00,19.3,17.2,30.08,SW,233,0.0,0.0,92,0.00,,,0.00,VWS V14.00,2013-01-26 02:30:00,
2013-01-25 21:35:00,19.2,17.2,30.08,SW,233,0.0,0.0,92,0.00,,,0.00,VWS V14.00,2013-01-26 02:35:00,
2013-01-25 21:40:00,19.2,17.1,30.08,SW,233,0.0,0.0,92,0.00,,,0.00,VWS V14.00,2013-01-26 02:40:00,
2013-01-25 21:45:00,19.2,17.1,30.08,SW,233,0.0,0.0,91,0.00,,,0.00,VWS V14.00,2013-01-26 02:45:00,
2013-01-25 21:50:00,19.2,17.1,30.08,SW,233,0.0,0.0,91,0.00,,,0.00,VWS V14.00,2013-01-26 02:50:00,
2013-01-25 21:55:00,19.2,17.1,30.07,SW,233,0.0,0.0,91,0.00,,,0.00,VWS V14.00,2013-01-26 02:55:00,
2013-01-25 22:00:00,19.1,17.0,30.07,SW,233,0.0,0.0,91,0.00,,,0.00,VWS V14.00,2013-01-26 03:00:00,
2013-01-25 22:05:00,19.0,16.9,30.07,SW,233,0.0,0.0,91,0.00,,,0.00,VWS V14.00,2013-01-26 03:05:00,
2013-01-25 22:11:00,18.9,16.8,30.07,SW,233,0.0,0.0,91,0.00,,,0.00,VWS V14.00,2013-01-26 03:11:00,
2013-01-25 22:16:00,18.7,16.6,30.06,SW,233,0.0,0.0,91,0.00,,,0.00,VWS V14.00,2013-01-26 03:16:00,
2013-01-25 22:21:00,18.5,16.4,30.06,SW,233,0.0,0.0,91,0.00,,,0.00,VWS V14.00,2013-01-26 03:21:00,
2013-01-25 22:26:00,18.1,16.0,30.06,SW,233,0.0,0.0,91,0.00,,,0.00,VWS V14.00,2013-01-26 03:26:00,
2013-01-25 22:31:00,17.7,15.6,30.07,SW,233,0.0,0.0,92,0.00,,,0.00,VWS V14.00,2013-01-26 03:31:00,
2013-01-25 22:36:00,17.4,15.4,30.07,SW,233,0.0,0.0,92,0.00,,,0.00,VWS V14.00,2013-01-26 03:36:00,
2013-01-25 22:41:00,17.2,15.2,30.06,SW,233,0.0,0.0,92,0.00,,,0.00,VWS V14.00,2013-01-26 03:41:00,
2013-01-25 22:46:00,17.0,15.1,30.06,SW,233,0.0,0.0,92,0.00,,,0.00,VWS V14.00,2013-01-26 03:46:00,
2013-01-25 22:51:00,17.0,15.2,30.06,SW,233,0.0,0.0,92,0.00,,,0.00,VWS V14.00,2013-01-26 03:51:00,
2013-01-25 22:56:00,17.2,15.3,30.06,SW,233,0.0,0.0,92,0.00,,,0.00,VWS V14.00,2013-01-26 03:56:00,
2013-01-25 23:02:00,17.2,15.3,30.05,SW,233,0.0,0.0,92,0.00,,,0.00,VWS V14.00,2013-01-26 04:02:00,
2013-01-25 23:07:00,17.2,15.3,30.05,SW,233,0.0,0.0,92,0.00,,,0.00,VWS V14.00,2013-01-26 04:07:00,
2013-01-25 23:12:00,17.2,15.3,30.05,SW,233,0.0,0.0,92,0.00,,,0.00,VWS V14.00,2013-01-26 04:12:00,
2013-01-25 23:17:00,17.1,15.2,30.06,SW,233,0.0,0.0,92,0.00,,,0.00,VWS V14.00,2013-01-26 04:17:00,
2013-01-25 23:22:00,16.9,15.0,30.06,SW,233,0.0,0.0,92,0.00,,,0.00,VWS V14.00,2013-01-26 04:22:00,
2013-01-25 23:27:00,16.8,14.9,30.06,SW,233,0.0,0.0,92,0.00,,,0.00,VWS V14.00,2013-01-26 04:27:00,
2013-01-25 23:32:00,16.9,15.0,30.06,SW,233,0.0,0.0,92,0.00,,,0.00,VWS V14.00,2013-01-26 04:32:00,
2013-01-25 23:37:00,16.9,15.0,30.05,SW,233,0.0,0.0,92,0.00,,,0.00,VWS V14.00,2013-01-26 04:37:00,
2013-01-25 23:43:00,16.7,14.8,30.05,SW,233,0.0,0.0,92,0.00,,,0.00,VWS V14.00,2013-01-26 04:43:00,
2013-01-25 23:48:00,16.5,14.6,30.05,SW,233,0.0,0.0,92,0.00,,,0.00,VWS V14.00,2013-01-26 04:48:00,
2013-01-25 23:53:00,16.2,14.3,30.06,SW,233,0.0,0.0,92,0.00,,,0.00,VWS V14.00,2013-01-26 04:53:00,
2013-01-25 23:58:00,16.1,14.2,30.05,SW,233,0.0,0.0,92,0.00,,,0.00,VWS V14.00,2013-01-26 04:58:00,